Location: Cahas Mountain Overlook
(37.0833°N, 80.1000°W)
Time: 20:12:03
(UTC-04:00)

Explorer 7 - Pass Details

Date: 08 February 2026
Orbit: 430 x 541 km, 50.2° (Epoch: 13 March)

Event Time Altitude Azimuth Distance (km) Brightness Sun altitude
Rises 22:01:49 0° 307° (NW) 2,596 - -49.4°
Reaches altitude 10° 22:05:13 10° 339° (NNW) 1,742 - -50.0°
Maximum altitude 22:06:53 12° 4° (N) 1,615 - -50.3°
Drops below altitude 10° 22:08:34 10° 29° (NNE) 1,768 - -50.6°
Sets 22:12:05 0° 60° (ENE) 2,681 - -51.3°
